Weather History for Evanston, WY

Change the Weather History Date:

Friday, March 29, 2013

  Actual Average Record
Temperature  
Mean Temperature 44 °F 35 °F  
Max Temperature 56 °F 44 °F 56 °F (2013)
Min Temperature 32 °F 25 °F 15 °F (2003)
Degree Days  
Heating Degree Days 21 30  
Month to date heating degree days 954 1000  
Since 1 July heating degree days 6549 7008  
Cooling Degree Days 0 0  
Month to date cooling degree days 0 0  
Year to date cooling degree days 0 0  
Moisture  
Dew Point 26 °F    
Average Humidity 52    
Maximum Humidity 75    
Minimum Humidity 28    
Precipitation  
Precipitation 0.00 in 0.04 in 0.11 in (2012)
Month to date precipitation 0.41 0.78  
Year to date precipitation 0.88 1.93  
Sea Level Pressure  
Sea Level Pressure 30.11 in    
Wind  
Wind Speed 12 mph (WSW)    
Max Wind Speed 21 mph    
Max Gust Speed 31 mph    
Visibility 10 miles    
Events      
T = Trace of Precipitation, MM = Missing Value Source: NWS Daily Summary

Daily Weather History Graph

Daily Weather History Graph

Search for Another Location

Airport:

Trip Planner

Search our weather history database for the weather conditions in past years. The results will help you decide how hot, cold, wet, or windy it might be!

Date:

Astronomy

Mar. 29, 2013 Rise Set
Actual Time 7:11 AM MDT 7:46 PM MDT
Civil Twilight 6:44 AM MDT 8:14 PM MDT
Nautical Twilight 6:11 AM MDT 8:47 PM MDT
Astronomical Twilight 5:37 AM MDT 9:20 PM MDT
Moon 10:52 PM MDT (3/29) 8:21 AM MDT (3/29)
Length of Visible Light 13h 30m
Length of Day
12h 34m
Waning Gibbous, 93% of the Moon is Illuminated
Mar 29
Waning Gibbous
Apr 2
Last Quarter
Apr 10
New
Apr 18
First Quarter
Apr 25
Full

Hourly Weather History & Observations

Time (MDT) Temp. Windchill Dew Point Humidity Pressure Visibility Wind Dir Wind Speed Gust Speed Precip Events Conditions
12:53 AM 37.9 °F 34.4 °F 28.0 °F 68% 30.03 in 10.0 mi ESE 4.6 mph - N/A   Clear
1:53 AM 37.9 °F 33.5 °F 28.0 °F 68% 30.02 in 10.0 mi SSW 5.8 mph - N/A   Scattered Clouds
2:53 AM 39.0 °F 34.0 °F 27.0 °F 62% 30.02 in 10.0 mi SSW 6.9 mph - N/A   Mostly Cloudy
3:53 AM 35.1 °F 29.3 °F 28.0 °F 76% 30.09 in 10.0 mi WSW 6.9 mph - N/A   Mostly Cloudy
4:53 AM 36.0 °F 30.3 °F 28.0 °F 73% 30.07 in 10.0 mi SSW 6.9 mph - N/A   Clear
5:53 AM 35.1 °F 28.6 °F 27.0 °F 72% 30.09 in 10.0 mi SW 8.1 mph - N/A   Clear
6:53 AM 35.1 °F 27.4 °F 27.0 °F 72% 30.11 in 10.0 mi SW 10.4 mph - N/A   Clear
7:53 AM 33.1 °F 25.5 °F 27.0 °F 78% 30.15 in 10.0 mi SW 9.2 mph - N/A   Clear
8:53 AM 39.0 °F 32.3 °F 30.0 °F 70% 30.14 in 10.0 mi SW 10.4 mph - N/A   Clear
9:53 AM 43.0 °F 38.2 °F 30.9 °F 62% 30.14 in 10.0 mi WSW 8.1 mph - N/A   Clear
10:53 AM 48.9 °F - 30.0 °F 48% 30.12 in 10.0 mi WSW 17.3 mph 23.0 mph N/A   Partly Cloudy
11:53 AM 51.1 °F - 28.0 °F 41% 30.11 in 10.0 mi WSW 16.1 mph 24.2 mph N/A   Scattered Clouds
12:53 PM 52.0 °F - 26.1 °F 37% 30.12 in 10.0 mi West 17.3 mph 23.0 mph N/A   Partly Cloudy
1:53 PM 53.1 °F - 21.9 °F 30% 30.10 in 10.0 mi West 20.7 mph 25.3 mph N/A   Partly Cloudy
2:53 PM 53.1 °F - 24.1 °F 32% 30.09 in 10.0 mi WNW 17.3 mph 23.0 mph N/A   Scattered Clouds
3:53 PM 54.0 °F - 23.0 °F 30% 30.09 in 10.0 mi WSW 15.0 mph 27.6 mph N/A   Partly Cloudy
4:53 PM 55.0 °F - 25.0 °F 31% 30.08 in 10.0 mi West 20.7 mph 28.8 mph N/A   Mostly Cloudy
5:53 PM 51.1 °F - 24.1 °F 35% 30.12 in 10.0 mi West 17.3 mph 24.2 mph N/A   Clear
6:53 PM 50.0 °F - 25.0 °F 38% 30.12 in 10.0 mi West 16.1 mph - N/A   Partly Cloudy
7:53 PM 45.0 °F 39.7 °F 26.1 °F 48% 30.15 in 10.0 mi West 10.4 mph - N/A   Clear
8:53 PM 43.0 °F 38.2 °F 25.0 °F 49% 30.14 in 10.0 mi WSW 8.1 mph - N/A   Clear
9:53 PM 37.9 °F 33.5 °F 26.1 °F 62% 30.16 in 10.0 mi SW 5.8 mph - N/A   Clear
10:53 PM 37.9 °F 32.7 °F 25.0 °F 60% 30.14 in 10.0 mi SW 6.9 mph - N/A   Clear
11:53 PM 39.0 °F 34.0 °F 24.1 °F 55% 30.13 in 10.0 mi SW 6.9 mph - N/A   Clear